Погода в Филатовке

Россия / Республика Крым     46°04′52″N   33°47′04″E
темп.,
°C
ветер,
м/с
пор.,
м/с
влажн.,
%
обл.,
%
осадки,
мм/ч
давл.,
гПа
погр.,
м
17 мая, пн
пн1700:00+16ссз5891100 2.3 1002217
03:00+16зсз249696 5.1 1001106
06:00+16зсз4596100 1.0 1001244
09:00+17з6792100 1.1 1003415
12:00+17зюз798670 0.0 1005392
15:00+17зюз810760 0.0 1006447
18:00+16зюз81083100 0.0 1006363
21:00+16ююз6883100 0.0 1007361
18 мая, вт
вт1800:00+15ююз5985100 0.1 1008374
03:00+14ююз5109323 0.1 1007353
06:00+14ю5109213 0.0 1007313
09:00+18ююз71077100 0.3 1007501
12:00+19юз91070100 2.6 1007766
15:00+17ююз7117698 4.4 1006501
18:00+18юз81179100 0.3 1006649
21:00+15ююз7118292 0.3 1007505
19 мая, ср
ср1900:00+14ююз91286100 0.1 1006401
03:00+14ююз56827 0.3 1006152
06:00+14зюз68751 0.3 1006486
09:00+15юз101180100 0.6 10071049
12:00+14зюз121488100 2.5 10081004
15:00+15зюз131584100 3.4 10091054
18:00+15з11158014 0.3 1011937
21:00+15зюз812825 0.3 1012600
20 мая, чт
чт2000:00+14юз8138237 0.0 1012470
03:00+13юз69830 0.0 1012250
06:00+13ююз5782100 0.0 1012170
09:00+17ююз356459 0.0 1012315
12:00+20зюз135474 0.0 1012808
15:00+20сз355523 0.0 1010964
18:00+20з136259 0.0 1009578
21:00+17зсз6776100 0.0 1010150
21 мая, пт
пт2100:00+16ссв45807 0.0 1010108
03:00+15с3375100 0.0 101080
06:00+15с5875100 0.0 1011234
09:00+17с5667100 0.0 1011373
12:00+20ссв4558100 0.0 1012479
15:00+22с355352 0.0 1011605
18:00+22с5761100 0.0 1010341
21:00+19ссв61074100 0.0 1011185